Location: Asheville, NC
(35.6000°N, 82.5500°W)
Time: 21:56:51
(UTC-04:00)

CUBESAT XI-V - Visible Passes

Search period start: 25 April 2018 00:00
Search period end: 05 May 2018 00:00
Orbit: 649 x 674 km, 97.9° (Epoch: 24 April)

Date Brightness Start Highest point End Pass type
(mag) Time Alt. Az. Time Alt. Az. Time Alt. Az.
25 Apr ? 04:35:30 28° SSE 04:37:48 65° ENE 04:42:21 10° N visible
26 Apr ? 03:28:09 10° E 03:29:46 12° ENE 03:31:22 10° NE visible
26 Apr ? 05:04:00 31° SSW 05:05:58 59° W 05:10:25 10° NNW visible
27 Apr ? 03:52:47 12° ESE 03:55:48 22° ENE 03:59:12 10° NNE visible
27 Apr ? 05:30:29 22° SW 05:32:14 29° W 05:36:05 10° NW visible
28 Apr ? 04:17:24 20° SE 04:19:58 39° ENE 04:24:03 10° N visible
28 Apr ? 05:54:58 13° WSW 05:56:36 15° W 05:59:08 10° WNW visible
29 Apr ? 04:40:01 28° SSE 04:42:15 73° ENE 04:46:33 10° N visible
30 Apr ? 05:00:39 30° S 05:02:38 63° W 05:06:51 10° NNW visible
01 May ? 03:42:51 10° ESE 03:45:18 15° ENE 03:47:47 10° NNE visible
01 May ? 05:19:19 24° SW 05:21:06 36° W 05:24:58 10° NNW visible
02 May ? 03:58:57 12° ESE 04:01:46 23° ENE 04:05:01 10° NNE visible
02 May ? 05:35:59 18° SW 05:37:39 23° W 05:40:55 10° NW visible
03 May ? 04:13:47 17° SE 04:16:20 33° ENE 04:19:59 10° N visible
03 May ? 05:50:42 12° WSW 05:52:17 15° W 05:54:38 10° WNW visible
04 May ? 04:26:40 21° SE 04:28:59 47° ENE 04:32:51 10° N visible
